Oslo Airport, Norway

12:37 AM CEST on March 30, 2017 (GMT +0200)
Gardermoen

Weather History for ENGM - May, 2013

Change the Weather History Date:

Saturday, May 25, 2013

  Actual Average Record
Temperature  
Mean Temperature 58 °F -  
Max Temperature 69 °F 62 °F 82 °F (2012)
Min Temperature 48 °F 46 °F 39 °F (2001)
Degree Days  
Heating Degree Days 6    
Growing Degree Days 8 (Base 50)    
Moisture  
Dew Point 46 °F    
Average Humidity 61    
Maximum Humidity 93    
Minimum Humidity 32    
Precipitation  
Precipitation 0.01 in 0.09 in - ()
Sea Level Pressure  
Sea Level Pressure 29.94 in    
Wind  
Wind Speed 6 mph ()    
Max Wind Speed 13 mph    
Max Gust Speed -    
Visibility 6.2 miles    
Events      
Averages and records for this station are not official NWS values.
T = Trace of Precipitation, MM = Missing Value Source: Averaged Metar Reports

Daily Weather History Graph

Daily Weather History Graph

Search for Another Location

Airport or City:

Trip Planner

Search our weather history database for the weather conditions in past years. The results will help you decide how hot, cold, wet, or windy it might be!

Date:

Astronomy

May. 25, 2013 Rise Set
Actual Time 4:14 AM CEST 10:11 PM CEST
Civil Twilight 2:59 AM CEST 11:28 PM CEST
Nautical Twilight Sun does not rise Sun does not rise
Astronomical Twilight Sun does not rise Sun does not rise
Moon 10:35 PM CEST (5/25) 4:36 AM CEST (5/25)
Length of Visible Light 20h 29m
Length of Day
17h 57m
Full, 100% of the Moon is Illuminated
May 25
Full
May 31
Last Quarter
Jun 8
New
Jun 16
First Quarter
Jun 23
Full

Hourly Weather History & Observations

Time (CEST) Temp. Dew Point Humidity Pressure Visibility Wind Dir Wind Speed Gust Speed Precip Events Conditions
12:20 AM 51.8 °F 46.4 °F 82% 29.95 in - North 2.3 mph - N/A   Clear
12:50 AM 51.8 °F 48.2 °F 88% 29.95 in - NNE 5.8 mph - N/A   Clear
1:20 AM 50.0 °F 46.4 °F 87% 29.95 in - NNE 2.3 mph - N/A   Clear
1:50 AM 48.2 °F 46.4 °F 93% 29.95 in - Variable 2.3 mph - N/A   Clear
2:00 AM 49 °F 47 °F 88%  in 40 mi NNE 6.7 mph - -   Partly Cloudy
2:20 AM 50.0 °F 46.4 °F 87% 29.95 in - Variable 2.3 mph - N/A   Clear
2:50 AM 48.2 °F 44.6 °F 87% 29.95 in - NNE 6.9 mph - N/A   Clear
3:20 AM 50.0 °F 46.4 °F 87% 29.95 in - North 9.2 mph - N/A   Clear
3:50 AM 50.0 °F 46.4 °F 87% 29.95 in - North 8.1 mph - N/A   Clear
4:20 AM 51.8 °F 46.4 °F 82% 29.95 in - North 9.2 mph - N/A   Clear
4:50 AM 51.8 °F 46.4 °F 82% 29.95 in - North 9.2 mph - N/A   Clear
5:20 AM 51.8 °F 44.6 °F 76% 29.95 in - North 10.4 mph - N/A   Clear
5:50 AM 51.8 °F 44.6 °F 76% 29.98 in - North 11.5 mph - N/A   Clear
6:20 AM 51.8 °F 44.6 °F 76% 29.98 in - North 11.5 mph - N/A   Clear
6:50 AM 53.6 °F 44.6 °F 72% 29.98 in - NNE 11.5 mph - N/A   Clear
7:20 AM 53.6 °F 44.6 °F 72% 29.98 in - North 11.5 mph - N/A   Clear
7:50 AM 55.4 °F 44.6 °F 67% 29.98 in - North 12.7 mph - N/A   Clear
8:00 AM 55 °F 44 °F 58%  in 31 mi NNE 11.2 mph - -   Partly Cloudy
8:20 AM 55.4 °F 44.6 °F 67% 29.98 in - North 10.4 mph - N/A   Clear
8:50 AM 55.4 °F 42.8 °F 63% 29.98 in - North 10.4 mph - N/A   Clear
9:20 AM 57.2 °F 44.6 °F 63% 29.98 in - NNE 11.5 mph - N/A   Clear
9:50 AM 59.0 °F 46.4 °F 63% 29.98 in - North 10.4 mph - N/A   Clear
10:20 AM 59.0 °F 46.4 °F 63% 29.98 in - NNE 9.2 mph - N/A   Clear
10:50 AM 60.8 °F 46.4 °F 59% 29.98 in - NNE 8.1 mph - N/A   Clear
11:20 AM 60.8 °F 46.4 °F 59% 29.98 in - NE 5.8 mph - N/A   Clear
11:50 AM 62.6 °F 46.4 °F 55% 29.98 in 6.2 mi NE 5.8 mph - N/A   Mostly Cloudy
12:20 PM 64.4 °F 48.2 °F 56% 29.95 in 6.2 mi North 5.8 mph - N/A   Mostly Cloudy
12:50 PM 64.4 °F 46.4 °F 52% 29.95 in 6.2 mi Variable 4.6 mph - N/A   Mostly Cloudy
1:20 PM 66.2 °F 48.2 °F 52% 29.95 in 6.2 mi North 5.8 mph - N/A   Scattered Clouds
1:50 PM 64.4 °F 46.4 °F 52% 29.95 in 6.2 mi North 8.1 mph - N/A   Mostly Cloudy
2:00 PM 67 °F 47 °F 37%  in 47 mi NNW 6.7 mph - -   Partly Cloudy
2:20 PM 68.0 °F 46.4 °F 46% 29.95 in 6.2 mi Variable 4.6 mph - N/A   Mostly Cloudy
2:50 PM 68.0 °F 46.4 °F 46% 29.92 in 6.2 mi Variable 3.5 mph - N/A   Mostly Cloudy
3:20 PM 68.0 °F 44.6 °F 43% 29.92 in 6.2 mi Variable 4.6 mph - N/A   Mostly Cloudy
3:50 PM 68.0 °F 44.6 °F 43% 29.92 in 6.2 mi NNE 4.6 mph - N/A   Mostly Cloudy
4:20 PM 68.0 °F 44.6 °F 43% 29.92 in - North 4.6 mph - N/A   Clear
4:50 PM 68.0 °F 44.6 °F 43% 29.89 in - North 6.9 mph - N/A   Clear
5:20 PM 68.0 °F 44.6 °F 43% 29.89 in 6.2 mi North 5.8 mph - N/A   Mostly Cloudy
5:50 PM 69.8 °F 42.8 °F 38% 29.89 in - North 5.8 mph - N/A   Clear
6:20 PM 69.8 °F 44.6 °F 40% 29.89 in - North 6.9 mph - N/A   Clear
6:50 PM 69.8 °F 44.6 °F 40% 29.89 in - NNE 6.9 mph - N/A   Clear
7:20 PM 69.8 °F 44.6 °F 40% 29.89 in - North 5.8 mph - N/A   Clear
7:50 PM 68.0 °F 44.6 °F 43% 29.89 in - North 5.8 mph - N/A   Clear
8:00 PM 69 °F 46 °F 32%  in 37 mi North 6.7 mph - -   Partly Cloudy
8:20 PM 68.0 °F 44.6 °F 43% 29.89 in - North 5.8 mph - N/A   Clear
8:50 PM 66.2 °F 44.6 °F 46% 29.89 in - North 3.5 mph - N/A   Clear
9:20 PM 64.4 °F 44.6 °F 49% 29.89 in - North 2.3 mph - N/A   Clear
9:50 PM 64.4 °F 46.4 °F 52% 29.89 in - Variable 2.3 mph - N/A   Clear
10:20 PM 60.8 °F 46.4 °F 59% 29.89 in - NNE 3.5 mph - N/A   Clear
10:50 PM 60.8 °F 46.4 °F 59% 29.89 in - NE 3.5 mph - N/A   Clear
11:20 PM 59.0 °F 46.4 °F 63% 29.89 in - North 2.3 mph - N/A   Clear
11:50 PM 57.2 °F 46.4 °F 67% 29.89 in - North 2.3 mph - N/A   Clear